Time,TemperatureF,DewpointF,PressureIn,WindDirection,WindDirectionDegrees,WindSpeedMPH,WindSpeedGustMPH,Humidity,HourlyPrecipIn,Conditions,Clouds,dailyrainin,SoftwareType,DateUTC
2013-02-10 00:00:00,68.3,61.5,30.11,WSW,254,0.0,0.0,79,0.00,,,0.00,Wunderground PWS Mod,2013-02-10 05:00:00,
2013-02-10 00:06:00,68.1,61.3,30.11,WSW,254,0.0,0.0,79,0.00,,,0.00,Wunderground PWS Mod,2013-02-10 05:06:00,
2013-02-10 00:08:00,68.1,61.3,30.11,WSW,254,0.0,0.0,79,0.00,,,0.00,Wunderground PWS Mod,2013-02-10 05:08:00,
2013-02-10 00:10:00,68.1,61.3,30.11,WSW,254,0.0,0.0,79,0.00,,,0.00,Wunderground PWS Mod,2013-02-10 05:10:00,
2013-02-10 00:12:00,67.8,61.4,30.11,N/A,-737280,0.0,0.0,80,0.00,,,0.00,Wunderground PWS Mod,2013-02-10 05:12:00,
2013-02-10 00:16:00,68.1,61.3,30.11,WSW,254,0.0,0.0,79,0.00,,,0.00,Wunderground PWS Mod,2013-02-10 05:16:00,
2013-02-10 00:22:00,67.9,61.1,30.11,WSW,254,0.0,0.0,79,0.00,,,0.00,Wunderground PWS Mod,2013-02-10 05:22:00,
2013-02-10 00:28:00,67.8,61.0,30.11,WSW,254,0.0,0.0,79,0.00,,,0.00,Wunderground PWS Mod,2013-02-10 05:28:00,
2013-02-10 00:30:00,67.8,61.4,30.11,WSW,254,0.0,0.0,80,0.00,,,0.00,Wunderground PWS Mod,2013-02-10 05:30:00,
2013-02-10 00:34:00,67.3,61.3,30.11,N/A,-737280,0.0,0.0,81,0.00,,,0.00,Wunderground PWS Mod,2013-02-10 05:34:00,
2013-02-10 00:36:00,67.8,61.4,30.11,SW,217,0.0,0.0,80,0.00,,,0.00,Wunderground PWS Mod,2013-02-10 05:36:00,
2013-02-10 00:42:00,67.6,60.9,30.11,SW,229,0.0,0.0,79,0.00,,,0.00,Wunderground PWS Mod,2013-02-10 05:42:00,
2013-02-10 00:48:00,67.4,61.0,30.11,SW,229,0.0,0.0,80,0.00,,,0.00,Wunderground PWS Mod,2013-02-10 05:48:00,
2013-02-10 00:54:00,67.3,61.3,30.11,SW,229,0.0,0.0,81,0.00,,,0.00,Wunderground PWS Mod,2013-02-10 05:54:00,
2013-02-10 01:00:00,67.1,61.4,30.11,SW,229,0.0,0.0,82,0.00,,,0.00,Wunderground PWS Mod,2013-02-10 06:00:00,
2013-02-10 01:02:00,66.4,61.1,30.11,N/A,-737280,0.0,0.0,83,0.00,,,0.00,Wunderground PWS Mod,2013-02-10 06:02:00,
2013-02-10 01:06:00,66.9,61.2,30.11,WSW,251,0.0,0.0,82,0.00,,,0.00,Wunderground PWS Mod,2013-02-10 06:06:00,
2013-02-10 01:12:00,66.8,61.1,30.11,WSW,252,0.0,0.0,82,0.00,,,0.00,Wunderground PWS Mod,2013-02-10 06:12:00,
2013-02-10 01:18:00,66.6,60.9,30.11,WSW,251,0.0,0.0,82,0.00,,,0.00,Wunderground PWS Mod,2013-02-10 06:18:00,
2013-02-10 01:24:00,66.4,61.1,30.11,WSW,252,0.0,0.0,83,0.00,,,0.00,Wunderground PWS Mod,2013-02-10 06:24:00,
2013-02-10 01:26:00,65.8,60.8,30.11,N/A,-737280,0.0,0.0,84,0.00,,,0.00,Wunderground PWS Mod,2013-02-10 06:26:00,
2013-02-10 01:30:00,66.3,61.0,30.11,WSW,251,0.0,0.0,83,0.00,,,0.00,Wunderground PWS Mod,2013-02-10 06:30:00,
2013-02-10 01:36:00,66.1,61.1,30.11,WSW,252,0.0,0.0,84,0.00,,,0.00,Wunderground PWS Mod,2013-02-10 06:36:00,
2013-02-10 01:42:00,66.0,61.0,30.11,WSW,252,0.0,0.0,84,0.00,,,0.00,Wunderground PWS Mod,2013-02-10 06:42:00,
2013-02-10 01:48:00,65.8,60.8,30.11,WSW,252,0.0,0.0,84,0.00,,,0.00,Wunderground PWS Mod,2013-02-10 06:48:00,
2013-02-10 01:54:00,65.8,60.8,30.11,WSW,252,0.0,0.0,84,0.00,,,0.00,Wunderground PWS Mod,2013-02-10 06:54:00,
2013-02-10 02:00:00,65.6,61.0,30.11,SSW,197,0.0,0.0,85,0.00,,,0.00,Wunderground PWS Mod,2013-02-10 07:00:00,
2013-02-10 02:06:00,65.6,61.0,30.11,SSW,197,0.0,0.0,85,0.00,,,0.00,Wunderground PWS Mod,2013-02-10 07:06:00,
2013-02-10 02:12:00,65.8,61.2,30.11,SSW,197,0.0,0.0,85,0.00,,,0.00,Wunderground PWS Mod,2013-02-10 07:12:00,
2013-02-10 02:18:00,65.6,61.0,30.10,South,185,0.0,0.0,85,0.00,,,0.00,Wunderground PWS Mod,2013-02-10 07:18:00,
2013-02-10 02:24:00,65.6,61.0,30.10,South,185,0.0,0.0,85,0.00,,,0.00,Wunderground PWS Mod,2013-02-10 07:24:00,
2013-02-10 02:30:00,65.6,61.0,30.10,South,185,0.0,0.0,85,0.00,,,0.00,Wunderground PWS Mod,2013-02-10 07:30:00,
2013-02-10 02:36:00,65.5,60.5,30.10,South,185,0.0,0.0,84,0.00,,,0.00,Wunderground PWS Mod,2013-02-10 07:36:00,
2013-02-10 02:42:00,65.3,60.3,30.10,South,185,0.0,0.0,84,0.00,,,0.00,Wunderground PWS Mod,2013-02-10 07:42:00,
2013-02-10 02:48:00,65.0,60.0,30.09,South,185,0.0,0.0,84,0.00,,,0.00,Wunderground PWS Mod,2013-02-10 07:48:00,
2013-02-10 02:54:00,64.8,59.9,30.09,SE,128,0.0,0.0,84,0.00,,,0.00,Wunderground PWS Mod,2013-02-10 07:54:00,
2013-02-10 02:56:00,64.2,59.3,30.09,N/A,-737280,0.0,0.0,84,0.00,,,0.00,Wunderground PWS Mod,2013-02-10 07:56:00,
2013-02-10 03:00:00,64.7,59.8,30.09,SE,128,0.0,0.0,84,0.00,,,0.00,Wunderground PWS Mod,2013-02-10 08:00:00,
2013-02-10 03:06:00,64.5,59.6,30.09,East,86,0.0,0.0,84,0.00,,,0.00,Wunderground PWS Mod,2013-02-10 08:06:00,
2013-02-10 03:12:00,64.3,59.4,30.09,East,86,0.0,0.0,84,0.00,,,0.00,Wunderground PWS Mod,2013-02-10 08:12:00,
2013-02-10 03:18:00,64.0,59.1,30.09,East,86,0.0,0.0,84,0.00,,,0.00,Wunderground PWS Mod,2013-02-10 08:18:00,
2013-02-10 03:22:00,63.7,59.4,30.09,N/A,-737280,0.0,0.0,86,0.00,,,0.00,Wunderground PWS Mod,2013-02-10 08:22:00,
2013-02-10 03:24:00,63.9,59.3,30.09,NE,55,0.0,0.0,85,0.00,,,0.00,Wunderground PWS Mod,2013-02-10 08:24:00,
2013-02-10 03:30:00,63.9,59.3,30.09,NNE,25,0.0,0.0,85,0.00,,,0.00,Wunderground PWS Mod,2013-02-10 08:30:00,
2013-02-10 03:36:00,63.7,59.1,30.09,NNE,24,0.0,0.0,85,0.00,,,0.00,Wunderground PWS Mod,2013-02-10 08:36:00,
2013-02-10 03:42:00,63.7,59.4,30.09,NNE,24,0.0,0.0,86,0.00,,,0.00,Wunderground PWS Mod,2013-02-10 08:42:00,
2013-02-10 03:46:00,63.2,58.9,30.09,N/A,-737280,0.0,0.0,86,0.00,,,0.00,Wunderground PWS Mod,2013-02-10 08:46:00,
2013-02-10 03:48:00,63.5,58.9,30.09,ENE,71,0.0,0.0,85,0.00,,,0.00,Wunderground PWS Mod,2013-02-10 08:48:00,
2013-02-10 03:54:00,63.4,59.1,30.09,ENE,71,0.0,0.0,86,0.00,,,0.00,Wunderground PWS Mod,2013-02-10 08:54:00,
2013-02-10 04:00:00,63.2,58.9,30.09,ENE,71,0.0,0.0,86,0.00,,,0.00,Wunderground PWS Mod,2013-02-10 09:00:00,
2013-02-10 04:08:00,63.1,58.8,30.09,ENE,71,0.0,0.0,86,0.00,,,0.00,Wunderground PWS Mod,2013-02-10 09:08:00,
2013-02-10 04:14:00,62.9,58.6,30.09,ENE,71,0.0,0.0,86,0.00,,,0.00,Wunderground PWS Mod,2013-02-10 09:14:00,
2013-02-10 04:20:00,62.7,58.5,30.09,ENE,71,0.0,0.0,86,0.00,,,0.00,Wunderground PWS Mod,2013-02-10 09:20:00,
2013-02-10 04:26:00,62.4,58.2,30.09,ENE,71,0.0,0.0,86,0.00,,,0.00,Wunderground PWS Mod,2013-02-10 09:26:00,
2013-02-10 04:32:00,62.3,58.1,30.09,ENE,71,0.0,0.0,86,0.00,,,0.00,Wunderground PWS Mod,2013-02-10 09:32:00,
2013-02-10 04:38:00,62.3,58.1,30.09,ENE,71,0.0,0.0,86,0.00,,,0.00,Wunderground PWS Mod,2013-02-10 09:38:00,
2013-02-10 04:44:00,62.1,57.9,30.09,ENE,71,0.0,0.0,86,0.00,,,0.00,Wunderground PWS Mod,2013-02-10 09:44:00,
2013-02-10 04:50:00,62.0,58.1,30.09,ENE,71,0.0,0.0,87,0.00,,,0.00,Wunderground PWS Mod,2013-02-10 09:50:00,
2013-02-10 04:56:00,62.0,58.1,30.09,ENE,71,0.0,0.0,87,0.00,,,0.00,Wunderground PWS Mod,2013-02-10 09:56:00,
2013-02-10 04:58:00,61.6,57.7,30.09,N/A,-737280,0.0,0.0,87,0.00,,,0.00,Wunderground PWS Mod,2013-02-10 09:58:00,
2013-02-10 05:02:00,61.8,57.9,30.09,ENE,71,0.0,0.0,87,0.00,,,0.00,Wunderground PWS Mod,2013-02-10 10:02:00,
2013-02-10 05:08:00,61.6,57.7,30.09,ENE,67,0.0,0.0,87,0.00,,,0.00,Wunderground PWS Mod,2013-02-10 10:08:00,
2013-02-10 05:14:00,61.6,57.7,30.09,ENE,67,0.0,0.0,87,0.00,,,0.00,Wunderground PWS Mod,2013-02-10 10:14:00,
2013-02-10 05:20:00,61.6,57.7,30.09,ENE,67,0.0,0.0,87,0.00,,,0.00,Wunderground PWS Mod,2013-02-10 10:20:00,
2013-02-10 05:22:00,61.3,57.4,30.10,N/A,-737280,0.0,0.0,87,0.00,,,0.00,Wunderground PWS Mod,2013-02-10 10:22:00,
2013-02-10 05:26:00,61.5,57.6,30.09,ENE,67,0.0,0.0,87,0.00,,,0.00,Wunderground PWS Mod,2013-02-10 10:26:00,
2013-02-10 05:32:00,61.3,57.4,30.09,ENE,67,0.0,0.0,87,0.00,,,0.00,Wunderground PWS Mod,2013-02-10 10:32:00,
2013-02-10 05:38:00,61.3,57.4,30.10,ENE,67,0.0,0.0,87,0.00,,,0.00,Wunderground PWS Mod,2013-02-10 10:38:00,
2013-02-10 05:44:00,61.2,57.3,30.10,ENE,67,0.0,0.0,87,0.00,,,0.00,Wunderground PWS Mod,2013-02-10 10:44:00,
2013-02-10 05:50:00,61.2,57.3,30.11,ENE,67,0.0,0.0,87,0.00,,,0.00,Wunderground PWS Mod,2013-02-10 10:50:00,
2013-02-10 05:56:00,61.2,57.3,30.11,ENE,67,0.0,0.0,87,0.00,,,0.00,Wunderground PWS Mod,2013-02-10 10:56:00,
2013-02-10 06:00:00,61.0,57.1,30.11,N/A,-737280,0.0,0.0,87,0.00,,,0.00,Wunderground PWS Mod,2013-02-10 11:00:00,
2013-02-10 06:02:00,61.2,57.3,30.11,ENE,67,0.0,0.0,87,0.00,,,0.00,Wunderground PWS Mod,2013-02-10 11:02:00,
2013-02-10 06:08:00,61.2,57.3,30.11,ENE,67,0.0,0.0,87,0.00,,,0.00,Wunderground PWS Mod,2013-02-10 11:08:00,
2013-02-10 06:14:00,61.0,57.1,30.11,ENE,67,0.0,0.0,87,0.00,,,0.00,Wunderground PWS Mod,2013-02-10 11:14:00,
2013-02-10 06:20:00,61.0,57.1,30.11,ENE,68,0.0,0.0,87,0.00,,,0.00,Wunderground PWS Mod,2013-02-10 11:20:00,
2013-02-10 06:26:00,60.9,57.0,30.11,ENE,68,0.0,0.0,87,0.00,,,0.00,Wunderground PWS Mod,2013-02-10 11:26:00,
2013-02-10 06:30:00,60.2,56.6,30.13,N/A,-737280,0.0,0.0,88,0.00,,,0.00,Wunderground PWS Mod,2013-02-10 11:30:00,
2013-02-10 06:32:00,60.7,57.1,30.11,ENE,68,0.0,0.0,88,0.00,,,0.00,Wunderground PWS Mod,2013-02-10 11:32:00,
2013-02-10 06:38:00,60.5,56.9,30.12,ENE,68,0.0,0.0,88,0.00,,,0.00,Wunderground PWS Mod,2013-02-10 11:38:00,
2013-02-10 06:44:00,60.4,56.8,30.12,ENE,68,0.0,0.0,88,0.00,,,0.00,Wunderground PWS Mod,2013-02-10 11:44:00,
2013-02-10 06:50:00,60.2,56.6,30.13,ENE,68,0.0,0.0,88,0.00,,,0.00,Wunderground PWS Mod,2013-02-10 11:50:00,
2013-02-10 06:56:00,60.1,56.5,30.13,ENE,68,0.0,0.0,88,0.00,,,0.00,Wunderground PWS Mod,2013-02-10 11:56:00,
2013-02-10 07:02:00,59.9,56.3,30.13,ENE,68,0.0,0.0,88,0.00,,,0.00,Wunderground PWS Mod,2013-02-10 12:02:00,
2013-02-10 07:04:00,59.5,56.3,30.13,N/A,-737280,0.0,0.0,89,0.00,,,0.00,Wunderground PWS Mod,2013-02-10 12:04:00,
2013-02-10 07:08:00,59.8,56.6,30.13,ENE,68,0.0,0.0,89,0.00,,,0.00,Wunderground PWS Mod,2013-02-10 12:08:00,
2013-02-10 07:14:00,59.6,56.4,30.13,ENE,68,0.0,0.0,89,0.00,,,0.00,Wunderground PWS Mod,2013-02-10 12:14:00,
2013-02-10 07:20:00,59.5,56.3,30.13,ENE,68,0.0,0.0,89,0.00,,,0.00,Wunderground PWS Mod,2013-02-10 12:20:00,
2013-02-10 07:26:00,59.5,56.3,30.13,ENE,68,0.0,0.0,89,0.00,,,0.00,Wunderground PWS Mod,2013-02-10 12:26:00,
2013-02-10 07:32:00,59.5,56.6,30.13,ENE,68,0.0,0.0,90,0.00,,,0.00,Wunderground PWS Mod,2013-02-10 12:32:00,
2013-02-10 07:38:00,59.5,56.6,30.14,ENE,68,0.0,0.0,90,0.00,,,0.00,Wunderground PWS Mod,2013-02-10 12:38:00,
2013-02-10 07:40:00,60.0,57.4,30.14,N/A,-737280,0.0,0.0,91,0.00,,,0.00,Wunderground PWS Mod,2013-02-10 12:40:00,
2013-02-10 07:44:00,59.5,56.6,30.14,ENE,68,0.0,0.0,90,0.00,,,0.00,Wunderground PWS Mod,2013-02-10 12:44:00,
2013-02-10 07:50:00,59.6,56.7,30.14,ENE,68,0.0,0.0,90,0.00,,,0.00,Wunderground PWS Mod,2013-02-10 12:50:00,
2013-02-10 07:56:00,59.8,57.2,30.14,ENE,68,0.0,0.0,91,0.00,,,0.00,Wunderground PWS Mod,2013-02-10 12:56:00,
2013-02-10 08:02:00,60.2,57.6,30.14,ENE,73,0.0,0.0,91,0.00,,,0.00,Wunderground PWS Mod,2013-02-10 13:02:00,
2013-02-10 08:08:00,60.7,57.7,30.14,NNE,19,0.0,0.0,90,0.00,,,0.00,Wunderground PWS Mod,2013-02-10 13:08:00,
2013-02-10 08:14:00,61.3,58.3,30.14,North,5,0.0,0.0,90,0.00,,,0.00,Wunderground PWS Mod,2013-02-10 13:14:00,
2013-02-10 08:20:00,62.0,59.0,30.14,North,5,0.0,0.0,90,0.00,,,0.00,Wunderground PWS Mod,2013-02-10 13:20:00,
2013-02-10 08:26:00,62.6,59.3,30.14,North,5,0.0,2.0,89,0.00,,,0.00,Wunderground PWS Mod,2013-02-10 13:26:00,
2013-02-10 08:32:00,63.4,59.5,30.14,ENE,61,0.0,0.0,87,0.00,,,0.00,Wunderground PWS Mod,2013-02-10 13:32:00,
2013-02-10 08:38:00,64.2,59.9,30.15,North,5,0.0,0.0,86,0.00,,,0.00,Wunderground PWS Mod,2013-02-10 13:38:00,
2013-02-10 08:44:00,65.0,60.0,30.15,ESE,117,0.0,0.0,84,0.00,,,0.00,Wunderground PWS Mod,2013-02-10 13:44:00,
2013-02-10 08:50:00,65.8,60.2,30.16,North,11,0.0,3.0,82,0.00,,,0.00,Wunderground PWS Mod,2013-02-10 13:50:00,
2013-02-10 08:56:00,67.1,60.7,30.16,WSW,246,0.0,0.0,80,0.00,,,0.00,Wunderground PWS Mod,2013-02-10 13:56:00,
2013-02-10 09:02:00,68.1,60.6,30.16,SSE,152,0.0,0.0,77,0.00,,,0.00,Wunderground PWS Mod,2013-02-10 14:02:00,
2013-02-10 09:08:00,69.1,61.2,30.16,NNE,18,0.0,0.0,76,0.00,,,0.00,Wunderground PWS Mod,2013-02-10 14:08:00,
2013-02-10 09:14:00,70.1,61.4,30.16,NNE,14,0.0,3.0,74,0.00,,,0.00,Wunderground PWS Mod,2013-02-10 14:14:00,
2013-02-10 09:20:00,70.9,61.4,30.16,South,178,0.0,1.0,72,0.00,,,0.00,Wunderground PWS Mod,2013-02-10 14:20:00,
2013-02-10 09:26:00,71.5,61.6,30.16,SW,221,0.0,2.0,71,0.00,,,0.00,Wunderground PWS Mod,2013-02-10 14:26:00,
2013-02-10 09:32:00,72.5,62.2,30.16,South,186,0.0,2.0,70,0.00,,,0.00,Wunderground PWS Mod,2013-02-10 14:32:00,
2013-02-10 09:34:00,73.9,62.2,30.17,SSW,203,2.0,4.0,67,0.00,,,0.00,Wunderground PWS Mod,2013-02-10 14:34:00,
2013-02-10 09:38:00,73.2,62.4,30.17,NNW,345,0.0,3.0,69,0.00,,,0.00,Wunderground PWS Mod,2013-02-10 14:38:00,
2013-02-10 09:44:00,73.7,62.5,30.17,South,184,1.0,2.0,68,0.00,,,0.00,Wunderground PWS Mod,2013-02-10 14:44:00,
2013-02-10 09:50:00,73.9,63.5,30.17,ESE,107,0.0,1.0,70,0.00,,,0.00,Wunderground PWS Mod,2013-02-10 14:50:00,
2013-02-10 09:56:00,73.9,62.7,30.17,WSW,244,1.0,5.0,68,0.00,,,0.00,Wunderground PWS Mod,2013-02-10 14:56:00,
2013-02-10 10:02:00,74.0,61.9,30.17,SW,232,1.0,2.0,66,0.00,,,0.00,Wunderground PWS Mod,2013-02-10 15:02:00,
2013-02-10 10:08:00,74.2,62.5,30.17,SE,126,1.0,1.0,67,0.00,,,0.00,Wunderground PWS Mod,2013-02-10 15:08:00,
2013-02-10 10:14:00,74.6,62.5,30.17,NE,46,1.0,3.0,66,0.00,,,0.00,Wunderground PWS Mod,2013-02-10 15:14:00,
2013-02-10 10:20:00,75.1,62.1,30.17,East,79,1.0,4.0,64,0.00,,,0.00,Wunderground PWS Mod,2013-02-10 15:20:00,
2013-02-10 10:26:00,75.4,62.4,30.17,SSE,162,1.0,2.0,64,0.00,,,0.00,Wunderground PWS Mod,2013-02-10 15:26:00,
2013-02-10 10:32:00,76.0,62.9,30.17,ESE,123,1.0,5.0,64,0.00,,,0.00,Wunderground PWS Mod,2013-02-10 15:32:00,
2013-02-10 10:38:00,76.3,62.3,30.17,North,5,1.0,3.0,62,0.00,,,0.00,Wunderground PWS Mod,2013-02-10 15:38:00,
2013-02-10 10:40:00,77.8,62.8,30.17,SW,225,1.0,3.0,60,0.00,,,0.00,Wunderground PWS Mod,2013-02-10 15:40:00,
2013-02-10 10:44:00,76.8,63.7,30.17,North,10,1.0,2.0,64,0.00,,,0.00,Wunderground PWS Mod,2013-02-10 15:44:00,
2013-02-10 10:50:00,77.4,63.4,30.17,ESE,107,1.0,3.0,62,0.00,,,0.00,Wunderground PWS Mod,2013-02-10 15:50:00,
2013-02-10 10:56:00,77.7,63.2,30.17,WSW,253,1.0,2.0,61,0.00,,,0.00,Wunderground PWS Mod,2013-02-10 15:56:00,
2013-02-10 11:02:00,78.1,63.1,30.17,West,265,1.0,2.0,60,0.00,,,0.00,Wunderground PWS Mod,2013-02-10 16:02:00,
2013-02-10 11:08:00,79.0,63.0,30.17,ESE,104,1.0,4.0,58,0.00,,,0.00,Wunderground PWS Mod,2013-02-10 16:08:00,
2013-02-10 11:12:00,78.3,62.3,30.17,East,90,2.0,3.0,58,0.00,,,0.00,Wunderground PWS Mod,2013-02-10 16:12:00,
2013-02-10 11:14:00,79.6,62.5,30.17,SSE,155,1.0,3.0,56,0.00,,,0.00,Wunderground PWS Mod,2013-02-10 16:14:00,
2013-02-10 11:20:00,79.4,63.3,30.17,WSW,246,1.0,1.0,58,0.00,,,0.00,Wunderground PWS Mod,2013-02-10 16:20:00,
2013-02-10 11:26:00,78.6,62.6,30.17,NW,319,0.0,1.0,58,0.00,,,0.00,Wunderground PWS Mod,2013-02-10 16:26:00,
2013-02-10 11:32:00,78.3,62.8,30.17,ENE,65,1.0,3.0,59,0.00,,,0.00,Wunderground PWS Mod,2013-02-10 16:32:00,
2013-02-10 11:38:00,78.5,62.5,30.17,SSE,149,1.0,3.0,58,0.00,,,0.00,Wunderground PWS Mod,2013-02-10 16:38:00,
2013-02-10 11:44:00,78.5,63.0,30.17,West,260,1.0,2.0,59,0.00,,,0.00,Wunderground PWS Mod,2013-02-10 16:44:00,
2013-02-10 11:46:00,78.5,61.5,30.16,NE,45,1.0,2.0,56,0.00,,,0.00,Wunderground PWS Mod,2013-02-10 16:46:00,
2013-02-10 11:50:00,78.3,61.8,30.16,SW,215,0.0,4.0,57,0.00,,,0.00,Wunderground PWS Mod,2013-02-10 16:50:00,
2013-02-10 11:56:00,78.1,61.1,30.16,North,5,1.0,2.0,56,0.00,,,0.00,Wunderground PWS Mod,2013-02-10 16:56:00,
2013-02-10 12:02:00,78.1,61.1,30.16,WSW,242,1.0,3.0,56,0.00,,,0.00,Wunderground PWS Mod,2013-02-10 17:02:00,
2013-02-10 12:08:00,78.8,61.3,30.16,West,262,1.0,5.0,55,0.00,,,0.00,Wunderground PWS Mod,2013-02-10 17:08:00,
2013-02-10 12:14:00,79.4,60.2,30.16,NNW,331,1.0,6.0,52,0.00,,,0.00,Wunderground PWS Mod,2013-02-10 17:14:00,
2013-02-10 12:16:00,79.9,60.7,30.14,N/A,-737280,0.0,0.0,52,0.00,,,0.00,Wunderground PWS Mod,2013-02-10 17:16:00,
2013-02-10 12:20:00,79.8,62.7,30.15,ESE,123,1.0,1.0,56,0.00,,,0.00,Wunderground PWS Mod,2013-02-10 17:20:00,
2013-02-10 12:26:00,80.1,60.9,30.15,South,171,1.0,3.0,52,0.00,,,0.00,Wunderground PWS Mod,2013-02-10 17:26:00,
2013-02-10 12:32:00,79.9,62.3,30.15,East,88,1.0,7.0,55,0.00,,,0.00,Wunderground PWS Mod,2013-02-10 17:32:00,
2013-02-10 12:38:00,79.9,60.2,30.14,West,263,1.0,2.0,51,0.00,,,0.00,Wunderground PWS Mod,2013-02-10 17:38:00,
2013-02-10 12:44:00,80.7,61.4,30.14,WNW,298,0.0,3.0,52,0.00,,,0.00,Wunderground PWS Mod,2013-02-10 17:44:00,
2013-02-10 12:48:00,80.9,62.2,30.13,N/A,-737280,0.0,0.0,53,0.00,,,0.00,Wunderground PWS Mod,2013-02-10 17:48:00,
2013-02-10 12:50:00,81.6,61.2,30.14,West,269,0.0,2.0,50,0.00,,,0.00,Wunderground PWS Mod,2013-02-10 17:50:00,
2013-02-10 12:56:00,81.2,61.4,30.14,SW,219,1.0,1.0,51,0.00,,,0.00,Wunderground PWS Mod,2013-02-10 17:56:00,
2013-02-10 13:02:00,81.1,61.3,30.14,West,277,1.0,6.0,51,0.00,,,0.00,Wunderground PWS Mod,2013-02-10 18:02:00,
2013-02-10 13:08:00,80.7,60.9,30.13,SSW,198,1.0,1.0,51,0.00,,,0.00,Wunderground PWS Mod,2013-02-10 18:08:00,
2013-02-10 13:14:00,80.7,59.8,30.13,East,98,1.0,6.0,49,0.00,,,0.00,Wunderground PWS Mod,2013-02-10 18:14:00,
2013-02-10 13:16:00,79.9,60.7,30.11,SW,225,0.0,1.0,52,0.00,,,0.00,Wunderground PWS Mod,2013-02-10 18:16:00,
2013-02-10 13:20:00,80.1,59.8,30.12,NE,53,1.0,1.0,50,0.00,,,0.00,Wunderground PWS Mod,2013-02-10 18:20:00,
2013-02-10 13:26:00,79.4,60.2,30.12,North,360,1.0,3.0,52,0.00,,,0.00,Wunderground PWS Mod,2013-02-10 18:26:00,
2013-02-10 13:32:00,79.8,58.9,30.12,ESE,117,1.0,3.0,49,0.00,,,0.00,Wunderground PWS Mod,2013-02-10 18:32:00,
2013-02-10 13:38:00,80.1,60.3,30.11,West,261,1.0,3.0,51,0.00,,,0.00,Wunderground PWS Mod,2013-02-10 18:38:00,
2013-02-10 13:40:00,79.2,59.5,30.11,SW,225,1.0,2.0,51,0.00,,,0.00,Wunderground PWS Mod,2013-02-10 18:40:00,
2013-02-10 13:44:00,79.8,60.6,30.11,SSE,159,0.0,2.0,52,0.00,,,0.00,Wunderground PWS Mod,2013-02-10 18:44:00,
2013-02-10 13:50:00,79.4,59.7,30.11,SSE,148,0.0,2.0,51,0.00,,,0.00,Wunderground PWS Mod,2013-02-10 18:50:00,
2013-02-10 13:56:00,79.2,59.0,30.11,SW,230,0.0,1.0,50,0.00,,,0.00,Wunderground PWS Mod,2013-02-10 18:56:00,
2013-02-10 14:02:00,79.6,60.4,30.11,SW,230,0.0,2.0,52,0.00,,,0.00,Wunderground PWS Mod,2013-02-10 19:02:00,
2013-02-10 14:04:00,80.9,59.4,30.09,N/A,-737280,0.0,0.0,48,0.00,,,0.00,Wunderground PWS Mod,2013-02-10 19:04:00,
2013-02-10 14:08:00,80.3,58.8,30.10,SSW,203,0.0,2.0,48,0.00,,,0.00,Wunderground PWS Mod,2013-02-10 19:08:00,
2013-02-10 14:14:00,81.2,59.1,30.10,SSE,165,0.0,3.0,47,0.00,,,0.00,Wunderground PWS Mod,2013-02-10 19:14:00,
2013-02-10 14:20:00,81.1,60.1,30.09,SSW,212,0.0,2.0,49,0.00,,,0.00,Wunderground PWS Mod,2013-02-10 19:20:00,
2013-02-10 14:26:00,80.5,59.6,30.09,NNW,329,0.0,1.0,49,0.00,,,0.00,Wunderground PWS Mod,2013-02-10 19:26:00,
2013-02-10 14:30:00,79.6,59.3,30.08,SSE,158,2.0,4.0,50,0.00,,,0.00,Wunderground PWS Mod,2013-02-10 19:30:00,
2013-02-10 14:32:00,79.9,59.0,30.09,SSW,199,0.0,3.0,49,0.00,,,0.00,Wunderground PWS Mod,2013-02-10 19:32:00,
2013-02-10 14:38:00,79.6,58.8,30.08,NNE,33,0.0,0.0,49,0.00,,,0.00,Wunderground PWS Mod,2013-02-10 19:38:00,
2013-02-10 14:44:00,79.4,58.6,30.08,SW,225,0.0,1.0,49,0.00,,,0.00,Wunderground PWS Mod,2013-02-10 19:44:00,
2013-02-10 14:50:00,79.6,58.8,30.08,WSW,240,1.0,4.0,49,0.00,,,0.00,Wunderground PWS Mod,2013-02-10 19:50:00,
2013-02-10 14:56:00,79.9,59.0,30.08,NE,46,1.0,2.0,49,0.00,,,0.00,Wunderground PWS Mod,2013-02-10 19:56:00,
2013-02-10 15:02:00,80.3,59.4,30.08,SSW,198,0.0,1.0,49,0.00,,,0.00,Wunderground PWS Mod,2013-02-10 20:02:00,
2013-02-10 15:06:00,80.7,59.2,30.07,East,90,0.0,1.0,48,0.00,,,0.00,Wunderground PWS Mod,2013-02-10 20:06:00,
2013-02-10 15:08:00,80.5,59.6,30.07,SSW,209,0.0,1.0,49,0.00,,,0.00,Wunderground PWS Mod,2013-02-10 20:08:00,
2013-02-10 15:14:00,80.7,59.8,30.07,SE,144,0.0,1.0,49,0.00,,,0.00,Wunderground PWS Mod,2013-02-10 20:14:00,
2013-02-10 15:20:00,81.1,59.0,30.07,East,91,0.0,5.0,47,0.00,,,0.00,Wunderground PWS Mod,2013-02-10 20:20:00,
2013-02-10 15:26:00,80.7,59.2,30.07,ENE,61,1.0,1.0,48,0.00,,,0.00,Wunderground PWS Mod,2013-02-10 20:26:00,
2013-02-10 15:32:00,80.1,59.8,30.07,NNW,337,0.0,3.0,50,0.00,,,0.00,Wunderground PWS Mod,2013-02-10 20:32:00,
2013-02-10 15:38:00,79.8,60.1,30.07,NNW,344,0.0,0.0,51,0.00,,,0.00,Wunderground PWS Mod,2013-02-10 20:38:00,
2013-02-10 15:44:00,79.6,60.4,30.07,ENE,71,0.0,3.0,52,0.00,,,0.00,Wunderground PWS Mod,2013-02-10 20:44:00,
2013-02-10 15:50:00,79.4,59.7,30.07,ESE,105,0.0,0.0,51,0.00,,,0.00,Wunderground PWS Mod,2013-02-10 20:50:00,
2013-02-10 15:56:00,79.2,59.5,30.07,South,173,0.0,0.0,51,0.00,,,0.00,Wunderground PWS Mod,2013-02-10 20:56:00,
2013-02-10 16:02:00,79.2,59.5,30.07,South,173,0.0,0.0,51,0.00,,,0.00,Wunderground PWS Mod,2013-02-10 21:02:00,
2013-02-10 16:04:00,79.3,58.5,30.08,East,90,0.0,1.0,49,0.00,,,0.00,Wunderground PWS Mod,2013-02-10 21:04:00,
2013-02-10 16:08:00,79.2,59.5,30.08,NE,41,0.0,1.0,51,0.00,,,0.00,Wunderground PWS Mod,2013-02-10 21:08:00,
2013-02-10 16:14:00,79.6,58.2,30.08,North,11,0.0,3.0,48,0.00,,,0.00,Wunderground PWS Mod,2013-02-10 21:14:00,
2013-02-10 16:20:00,79.6,58.8,30.08,West,271,0.0,2.0,49,0.00,,,0.00,Wunderground PWS Mod,2013-02-10 21:20:00,
2013-02-10 16:26:00,79.2,57.8,30.08,SE,126,0.0,2.0,48,0.00,,,0.00,Wunderground PWS Mod,2013-02-10 21:26:00,
2013-02-10 16:32:00,79.4,57.4,30.08,SW,215,0.0,1.0,47,0.00,,,0.00,Wunderground PWS Mod,2013-02-10 21:32:00,
2013-02-10 16:38:00,79.4,59.7,30.07,SSE,167,0.0,2.0,51,0.00,,,0.00,Wunderground PWS Mod,2013-02-10 21:38:00,
2013-02-10 16:44:00,79.0,60.9,30.07,SSE,157,0.0,1.0,54,0.00,,,0.00,Wunderground PWS Mod,2013-02-10 21:44:00,
2013-02-10 16:50:00,78.6,59.5,30.07,ENE,77,0.0,3.0,52,0.00,,,0.00,Wunderground PWS Mod,2013-02-10 21:50:00,
2013-02-10 16:56:00,78.1,60.6,30.07,NNE,32,1.0,5.0,55,0.00,,,0.00,Wunderground PWS Mod,2013-02-10 21:56:00,
2013-02-10 17:02:00,77.7,60.2,30.07,SE,127,1.0,1.0,55,0.00,,,0.00,Wunderground PWS Mod,2013-02-10 22:02:00,
2013-02-10 17:08:00,77.6,60.2,30.08,ESE,110,1.0,1.0,55,0.00,,,0.00,Wunderground PWS Mod,2013-02-10 22:08:00,
2013-02-10 17:14:00,77.4,60.5,30.08,NNE,17,1.0,3.0,56,0.00,,,0.00,Wunderground PWS Mod,2013-02-10 22:14:00,
2013-02-10 17:20:00,77.2,60.3,30.08,North,5,0.0,1.0,56,0.00,,,0.00,Wunderground PWS Mod,2013-02-10 22:20:00,
2013-02-10 17:26:00,77.2,61.3,30.08,ESE,114,1.0,5.0,58,0.00,,,0.00,Wunderground PWS Mod,2013-02-10 22:26:00,
2013-02-10 17:32:00,76.8,61.4,30.08,NNE,32,1.0,2.0,59,0.00,,,0.00,Wunderground PWS Mod,2013-02-10 22:32:00,
2013-02-10 17:38:00,76.5,61.6,30.08,NE,39,1.0,1.0,60,0.00,,,0.00,Wunderground PWS Mod,2013-02-10 22:38:00,
2013-02-10 17:40:00,75.1,61.6,30.08,SSW,203,0.0,1.0,63,0.00,,,0.00,Wunderground PWS Mod,2013-02-10 22:40:00,
2013-02-10 17:44:00,76.1,61.7,30.08,NNW,334,0.0,1.0,61,0.00,,,0.00,Wunderground PWS Mod,2013-02-10 22:44:00,
2013-02-10 17:50:00,75.6,61.7,30.08,NNW,336,0.0,1.0,62,0.00,,,0.00,Wunderground PWS Mod,2013-02-10 22:50:00,
2013-02-10 17:56:00,75.3,61.8,30.08,North,355,0.0,1.0,63,0.00,,,0.00,Wunderground PWS Mod,2013-02-10 22:56:00,
2013-02-10 18:02:00,74.9,61.9,30.08,ESE,112,0.0,1.0,64,0.00,,,0.00,Wunderground PWS Mod,2013-02-10 23:02:00,
2013-02-10 18:08:00,74.6,62.1,30.09,NE,42,0.0,2.0,65,0.00,,,0.00,Wunderground PWS Mod,2013-02-10 23:08:00,
2013-02-10 18:14:00,74.4,61.9,30.09,SE,144,0.0,0.0,65,0.00,,,0.00,Wunderground PWS Mod,2013-02-10 23:14:00,
2013-02-10 18:20:00,74.2,61.7,30.09,NNE,13,0.0,4.0,65,0.00,,,0.00,Wunderground PWS Mod,2013-02-10 23:20:00,
2013-02-10 18:26:00,74.2,62.1,30.09,ESE,106,0.0,0.0,66,0.00,,,0.00,Wunderground PWS Mod,2013-02-10 23:26:00,
2013-02-10 18:32:00,74.0,61.5,30.09,North,5,0.0,1.0,65,0.00,,,0.00,Wunderground PWS Mod,2013-02-10 23:32:00,
2013-02-10 18:38:00,74.0,61.5,30.10,ESE,116,0.0,0.0,65,0.00,,,0.00,Wunderground PWS Mod,2013-02-10 23:38:00,
2013-02-10 18:44:00,73.7,61.6,30.10,South,187,0.0,2.0,66,0.00,,,0.00,Wunderground PWS Mod,2013-02-10 23:44:00,
2013-02-10 18:50:00,73.5,61.4,30.11,SE,142,0.0,0.0,66,0.00,,,0.00,Wunderground PWS Mod,2013-02-10 23:50:00,
2013-02-10 18:56:00,73.3,61.3,30.11,SE,142,0.0,0.0,66,0.00,,,0.00,Wunderground PWS Mod,2013-02-10 23:56:00,
2013-02-10 19:02:00,73.2,61.6,30.11,SW,222,0.0,0.0,67,0.00,,,0.00,Wunderground PWS Mod,2013-02-11 00:02:00,
2013-02-10 19:08:00,73.0,61.4,30.12,South,178,0.0,0.0,67,0.00,,,0.00,Wunderground PWS Mod,2013-02-11 00:08:00,
2013-02-10 19:10:00,72.1,61.4,30.13,North,0,0.0,1.0,69,0.00,,,0.00,Wunderground PWS Mod,2013-02-11 00:10:00,
2013-02-10 19:14:00,72.7,61.5,30.12,South,178,0.0,0.0,68,0.00,,,0.00,Wunderground PWS Mod,2013-02-11 00:14:00,
2013-02-10 19:20:00,72.5,61.3,30.13,ENE,78,0.0,2.0,68,0.00,,,0.00,Wunderground PWS Mod,2013-02-11 00:20:00,
2013-02-10 19:26:00,72.1,61.4,30.13,NW,311,0.0,1.0,69,0.00,,,0.00,Wunderground PWS Mod,2013-02-11 00:26:00,
2013-02-10 19:32:00,72.0,61.7,30.13,ENE,70,0.0,1.0,70,0.00,,,0.00,Wunderground PWS Mod,2013-02-11 00:32:00,
2013-02-10 19:38:00,71.8,61.5,30.13,NNW,329,0.0,1.0,70,0.00,,,0.00,Wunderground PWS Mod,2013-02-11 00:38:00,
2013-02-10 19:44:00,71.6,61.7,30.13,WNW,286,0.0,1.0,71,0.00,,,0.00,Wunderground PWS Mod,2013-02-11 00:44:00,
2013-02-10 19:50:00,71.3,61.4,30.13,ENE,63,0.0,1.0,71,0.00,,,0.00,Wunderground PWS Mod,2013-02-11 00:50:00,
2013-02-10 19:56:00,71.1,61.2,30.13,SSE,148,0.0,1.0,71,0.00,,,0.00,Wunderground PWS Mod,2013-02-11 00:56:00,
2013-02-10 20:00:00,70.6,61.5,30.14,N/A,-737280,0.0,0.0,73,0.00,,,0.00,Wunderground PWS Mod,2013-02-11 01:00:00,
2013-02-10 20:02:00,71.1,61.6,30.13,NNE,22,0.0,0.0,72,0.00,,,0.00,Wunderground PWS Mod,2013-02-11 01:02:00,
2013-02-10 20:08:00,70.9,61.4,30.14,NNE,22,0.0,0.0,72,0.00,,,0.00,Wunderground PWS Mod,2013-02-11 01:08:00,
2013-02-10 20:14:00,70.8,61.7,30.14,NNW,336,0.0,2.0,73,0.00,,,0.00,Wunderground PWS Mod,2013-02-11 01:14:00,
2013-02-10 20:20:00,70.6,61.5,30.14,NNW,336,0.0,0.0,73,0.00,,,0.00,Wunderground PWS Mod,2013-02-11 01:20:00,
2013-02-10 20:22:00,69.6,60.9,30.14,N/A,-737280,0.0,0.0,74,0.00,,,0.00,Wunderground PWS Mod,2013-02-11 01:22:00,
2013-02-10 20:26:00,70.3,61.2,30.14,NNW,327,0.0,0.0,73,0.00,,,0.00,Wunderground PWS Mod,2013-02-11 01:26:00,
2013-02-10 20:32:00,69.9,61.2,30.14,NNW,327,0.0,0.0,74,0.00,,,0.00,Wunderground PWS Mod,2013-02-11 01:32:00,
2013-02-10 20:38:00,69.8,61.1,30.14,NNW,331,0.0,1.0,74,0.00,,,0.00,Wunderground PWS Mod,2013-02-11 01:38:00,
2013-02-10 20:44:00,69.4,60.8,30.14,NNW,331,0.0,0.0,74,0.00,,,0.00,Wunderground PWS Mod,2013-02-11 01:44:00,
2013-02-10 20:48:00,68.4,60.5,30.14,N/A,-737280,0.0,0.0,76,0.00,,,0.00,Wunderground PWS Mod,2013-02-11 01:48:00,
2013-02-10 20:50:00,69.3,61.0,30.14,NNW,331,0.0,0.0,75,0.00,,,0.00,Wunderground PWS Mod,2013-02-11 01:50:00,
2013-02-10 20:56:00,68.9,60.6,30.14,NNW,331,0.0,0.0,75,0.00,,,0.00,Wunderground PWS Mod,2013-02-11 01:56:00,
2013-02-10 21:02:00,68.8,60.9,30.14,NNW,331,0.0,0.0,76,0.00,,,0.00,Wunderground PWS Mod,2013-02-11 02:02:00,
2013-02-10 21:08:00,68.3,60.4,30.14,NNW,331,0.0,0.0,76,0.00,,,0.00,Wunderground PWS Mod,2013-02-11 02:08:00,
2013-02-10 21:14:00,67.9,60.4,30.14,NNW,331,0.0,0.0,77,0.00,,,0.00,Wunderground PWS Mod,2013-02-11 02:14:00,
2013-02-10 21:20:00,67.6,60.5,30.14,NNW,331,0.0,0.0,78,0.00,,,0.00,Wunderground PWS Mod,2013-02-11 02:20:00,
2013-02-10 21:26:00,67.3,60.6,30.14,NNW,329,0.0,1.0,79,0.00,,,0.00,Wunderground PWS Mod,2013-02-11 02:26:00,
2013-02-10 21:32:00,67.1,60.4,30.14,NNW,329,0.0,0.0,79,0.00,,,0.00,Wunderground PWS Mod,2013-02-11 02:32:00,
2013-02-10 21:38:00,66.9,60.5,30.14,NNW,329,0.0,0.0,80,0.00,,,0.00,Wunderground PWS Mod,2013-02-11 02:38:00,
2013-02-10 21:44:00,66.9,60.5,30.14,NNW,329,0.0,0.0,80,0.00,,,0.00,Wunderground PWS Mod,2013-02-11 02:44:00,
2013-02-10 21:50:00,66.6,60.2,30.14,NNW,329,0.0,0.0,80,0.00,,,0.00,Wunderground PWS Mod,2013-02-11 02:50:00,
2013-02-10 21:56:00,66.4,60.0,30.14,NNW,329,0.0,0.0,80,0.00,,,0.00,Wunderground PWS Mod,2013-02-11 02:56:00,
2013-02-10 22:02:00,66.3,60.3,30.14,NNW,329,0.0,0.0,81,0.00,,,0.00,Wunderground PWS Mod,2013-02-11 03:02:00,
2013-02-10 22:08:00,66.1,60.1,30.14,NNW,329,0.0,0.0,81,0.00,,,0.00,Wunderground PWS Mod,2013-02-11 03:08:00,
2013-02-10 22:14:00,65.8,60.2,30.14,NNW,329,0.0,0.0,82,0.00,,,0.00,Wunderground PWS Mod,2013-02-11 03:14:00,
2013-02-10 22:20:00,65.6,60.0,30.14,NNW,329,0.0,0.0,82,0.00,,,0.00,Wunderground PWS Mod,2013-02-11 03:20:00,
2013-02-10 22:24:00,65.0,59.7,30.14,N/A,-737280,0.0,0.0,83,0.00,,,0.00,Wunderground PWS Mod,2013-02-11 03:24:00,
2013-02-10 22:26:00,65.5,59.9,30.14,NNW,329,0.0,0.0,82,0.00,,,0.00,Wunderground PWS Mod,2013-02-11 03:26:00,
2013-02-10 22:32:00,65.3,59.7,30.14,NNW,329,0.0,0.0,82,0.00,,,0.00,Wunderground PWS Mod,2013-02-11 03:32:00,
2013-02-10 22:38:00,65.2,59.6,30.14,NNW,329,0.0,0.0,82,0.00,,,0.00,Wunderground PWS Mod,2013-02-11 03:38:00,
2013-02-10 22:44:00,65.0,59.7,30.14,NNW,329,0.0,0.0,83,0.00,,,0.00,Wunderground PWS Mod,2013-02-11 03:44:00,
2013-02-10 22:50:00,64.8,59.5,30.14,NNW,329,0.0,0.0,83,0.00,,,0.00,Wunderground PWS Mod,2013-02-11 03:50:00,
2013-02-10 22:56:00,64.5,59.2,30.14,NNW,329,0.0,0.0,83,0.00,,,0.00,Wunderground PWS Mod,2013-02-11 03:56:00,
2013-02-10 23:02:00,64.3,59.4,30.14,NNW,329,0.0,0.0,84,0.00,,,0.00,Wunderground PWS Mod,2013-02-11 04:02:00,
2013-02-10 23:08:00,64.0,59.1,30.14,NNW,329,0.0,0.0,84,0.00,,,0.00,Wunderground PWS Mod,2013-02-11 04:08:00,
2013-02-10 23:14:00,63.9,59.3,30.14,NNW,329,0.0,0.0,85,0.00,,,0.00,Wunderground PWS Mod,2013-02-11 04:14:00,
2013-02-10 23:20:00,63.7,59.1,30.14,NNW,329,0.0,0.0,85,0.00,,,0.00,Wunderground PWS Mod,2013-02-11 04:20:00,
2013-02-10 23:26:00,63.4,59.1,30.14,NNW,329,0.0,0.0,86,0.00,,,0.00,Wunderground PWS Mod,2013-02-11 04:26:00,
2013-02-10 23:32:00,63.2,58.9,30.14,NNW,329,0.0,0.0,86,0.00,,,0.00,Wunderground PWS Mod,2013-02-11 04:32:00,
2013-02-10 23:38:00,63.1,59.2,30.14,NNW,329,0.0,0.0,87,0.00,,,0.00,Wunderground PWS Mod,2013-02-11 04:38:00,
2013-02-10 23:40:00,62.4,58.5,30.14,N/A,-737280,0.0,0.0,87,0.00,,,0.00,Wunderground PWS Mod,2013-02-11 04:40:00,
2013-02-10 23:44:00,62.9,59.0,30.14,NNW,329,0.0,0.0,87,0.00,,,0.00,Wunderground PWS Mod,2013-02-11 04:44:00,
2013-02-10 23:50:00,62.6,58.7,30.14,NNW,329,0.0,0.0,87,0.00,,,0.00,Wunderground PWS Mod,2013-02-11 04:50:00,
2013-02-10 23:56:00,62.4,58.5,30.14,NNW,329,0.0,0.0,87,0.00,,,0.00,Wunderground PWS Mod,2013-02-11 04:56:00,